Pinedale, WY

8:10 PM MDT on October 16, 2017 (GMT -0600)
Wenz

Weather History for KPNA - November, 2012

Change the Weather History Date:

Sunday, November 25, 2012

  Actual Average (KBPI) Record (KBPI)
Temperature  
Mean Temperature 30 °F -  
Max Temperature 37 °F 30 °F 52 °F (1995)
Min Temperature 23 °F 5 °F -23 °F (2010)
Degree Days  
Heating Degree Days 35    
Moisture  
Dew Point 28 °F    
Average Humidity 89    
Maximum Humidity 100    
Minimum Humidity 69    
Precipitation  
Precipitation 0.00 in - - ()
Sea Level Pressure  
Sea Level Pressure 29.99 in    
Wind  
Wind Speed 3 mph (NW)    
Max Wind Speed 13 mph    
Max Gust Speed 17 mph    
Visibility 10 miles    
Events Snow    
Averages and records for this station are not official NWS values.
T = Trace of Precipitation, MM = Missing Value Source: NWS Daily Summary

Daily Weather History Graph

Daily Weather History Graph

Search for Another Location

Airport or City:

Trip Planner

Search our weather history database for the weather conditions in past years. The results will help you decide how hot, cold, wet, or windy it might be!

Date:

Astronomy

Nov. 25, 2012 Rise Set
Actual Time 7:24 AM MST 4:48 PM MST
Civil Twilight 6:52 AM MST 5:19 PM MST
Nautical Twilight 6:17 AM MST 5:54 PM MST
Astronomical Twilight 5:43 AM MST 6:28 PM MST
Moon 3:09 PM MST (11/25) 4:38 AM MST (11/25)
Length of Visible Light 10h 27m
Length of Day
9h 24m
Waxing Gibbous, 93% of the Moon is Illuminated
Nov 25
Waxing Gibbous
Nov 28
Full
Dec 6
Last Quarter
Dec 13
New
Dec 19
First Quarter

Hourly Weather History & Observations

Time (MST) Temp. Windchill Dew Point Humidity Pressure Visibility Wind Dir Wind Speed Gust Speed Precip Events Conditions
12:15 AM 32.0 °F 28.7 °F 32.0 °F 100% 30.04 in 10.0 mi West 3.5 mph - N/A   Overcast
12:35 AM 32.0 °F 28.7 °F 32.0 °F 100% 30.03 in 10.0 mi West 3.5 mph - N/A   Overcast
12:55 AM 32.0 °F - 32.0 °F 100% 30.02 in 10.0 mi Calm Calm - N/A   Overcast
1:15 AM 32.0 °F - 32.0 °F 100% 30.01 in 10.0 mi Calm Calm - N/A   Mostly Cloudy
1:35 AM 32.0 °F - 30.2 °F 93% 30.00 in 10.0 mi Calm Calm - N/A   Mostly Cloudy
1:55 AM 32.0 °F 28.7 °F 30.2 °F 93% 30.00 in 10.0 mi West 3.5 mph - N/A   Overcast
2:15 AM 32.0 °F - 30.2 °F 93% 30.00 in 10.0 mi Calm Calm - N/A   Overcast
2:35 AM 32.0 °F - 30.2 °F 93% 30.00 in 10.0 mi Calm Calm - N/A   Overcast
2:55 AM 30.2 °F - 30.2 °F 100% 29.99 in 10.0 mi Calm Calm - N/A   Overcast
3:15 AM 30.2 °F - 30.2 °F 100% 29.98 in 10.0 mi Calm Calm - N/A   Overcast
3:35 AM 30.2 °F - 30.2 °F 100% 29.97 in 10.0 mi Calm Calm - N/A   Overcast
3:55 AM 30.2 °F - 30.2 °F 100% 29.97 in 10.0 mi Calm Calm - N/A   Overcast
4:35 AM 30.2 °F 25.4 °F 30.2 °F 100% 29.95 in 10.0 mi East 4.6 mph - N/A   Overcast
4:55 AM 30.2 °F 22.6 °F 30.2 °F 100% 29.95 in 10.0 mi ESE 8.1 mph - N/A   Overcast
5:15 AM 30.2 °F - 30.2 °F 100% 29.95 in 10.0 mi Calm Calm - N/A   Overcast
5:35 AM 30.2 °F 25.4 °F 30.2 °F 100% 29.95 in 10.0 mi West 4.6 mph - N/A   Overcast
5:55 AM 28.4 °F - 28.4 °F 100% 29.93 in 10.0 mi Calm Calm - N/A   Overcast
6:15 AM 28.4 °F - 28.4 °F 100% 29.93 in 10.0 mi Calm Calm - N/A   Overcast
6:35 AM 30.2 °F 25.4 °F 30.2 °F 100% 29.93 in 10.0 mi WSW 4.6 mph - N/A   Overcast
6:55 AM 30.2 °F - 30.2 °F 100% 29.93 in 10.0 mi Calm Calm - N/A   Overcast
7:15 AM 30.2 °F 24.3 °F 30.2 °F 100% 29.94 in 10.0 mi NNW 5.8 mph - N/A   Overcast
7:35 AM 32.0 °F 27.5 °F 32.0 °F 100% 29.94 in 10.0 mi North 4.6 mph - N/A   Overcast
7:55 AM 32.0 °F - 30.2 °F 93% 29.95 in 10.0 mi Calm Calm - N/A   Overcast
8:15 AM 32.0 °F - 32.0 °F 100% 29.95 in 10.0 mi Calm Calm - N/A   Overcast
8:35 AM 32.0 °F - 32.0 °F 100% 29.95 in 10.0 mi Calm Calm - N/A   Overcast
8:55 AM 32.0 °F - 32.0 °F 100% 29.95 in 10.0 mi Calm Calm - N/A   Overcast
9:15 AM 32.0 °F - 32.0 °F 100% 29.96 in 10.0 mi Calm Calm - N/A   Overcast
9:35 AM 32.0 °F - 32.0 °F 100% 29.97 in 5.0 mi Calm Calm - N/A Snow Light Snow
9:55 AM 32.0 °F - 32.0 °F 100% 29.97 in 5.0 mi Calm Calm - N/A Snow Light Snow
10:15 AM 32.0 °F 26.4 °F 32.0 °F 100% 29.97 in 10.0 mi ESE 5.8 mph - N/A   Overcast
10:35 AM 32.0 °F 28.7 °F 32.0 °F 100% 29.97 in 10.0 mi ESE 3.5 mph - N/A   Overcast
10:55 AM 32.0 °F - 32.0 °F 100% 29.97 in 10.0 mi Calm Calm - N/A   Overcast
11:15 AM 33.8 °F 30.8 °F 32.0 °F 93% 29.97 in 10.0 mi ESE 3.5 mph - N/A   Overcast
11:35 AM 32.0 °F 27.5 °F 30.2 °F 93% 29.97 in 10.0 mi ESE 4.6 mph - N/A   Overcast
11:55 AM 33.8 °F 29.6 °F 30.2 °F 87% 29.95 in 10.0 mi SSE 4.6 mph - N/A   Overcast
12:15 PM 33.8 °F 30.8 °F 28.4 °F 81% 29.95 in 10.0 mi SE 3.5 mph - N/A   Overcast
12:35 PM 35.6 °F 30.7 °F 30.2 °F 81% 29.95 in 10.0 mi East 5.8 mph - N/A   Overcast
12:55 PM 35.6 °F 32.8 °F 30.2 °F 81% 29.95 in 10.0 mi ESE 3.5 mph - N/A   Overcast
1:15 PM 35.6 °F - 30.2 °F 81% 29.95 in 10.0 mi Calm Calm - N/A   Overcast
1:35 PM 37.4 °F 33.8 °F 30.2 °F 75% 29.95 in 10.0 mi NE 4.6 mph - N/A   Overcast
1:55 PM 37.4 °F 32.1 °F 30.2 °F 75% 29.96 in 10.0 mi North 6.9 mph - N/A   Overcast
2:15 PM 35.6 °F 31.7 °F 30.2 °F 81% 29.96 in 10.0 mi NNE 4.6 mph - N/A   Overcast
2:35 PM 35.6 °F 32.8 °F 30.2 °F 81% 29.95 in 10.0 mi NNE 3.5 mph - N/A   Overcast
2:55 PM 37.4 °F - 30.2 °F 75% 29.96 in 10.0 mi Calm Calm - N/A   Overcast
3:15 PM 37.4 °F 31.4 °F 28.4 °F 70% 29.96 in 10.0 mi NNW 8.1 mph 17.3 mph N/A   Overcast
3:35 PM 37.4 °F 30.3 °F 28.4 °F 70% 29.96 in 10.0 mi NW 10.4 mph 16.1 mph N/A   Scattered Clouds
3:55 PM 35.6 °F 28.6 °F 26.6 °F 70% 29.97 in 10.0 mi NW 9.2 mph - N/A   Scattered Clouds
4:15 PM 35.6 °F 28.6 °F 26.6 °F 70% 29.97 in 10.0 mi NW 9.2 mph - N/A   Scattered Clouds
4:35 PM 33.8 °F 26.4 °F 24.8 °F 70% 29.97 in 10.0 mi NW 9.2 mph - N/A   Scattered Clouds
4:55 PM 32.0 °F 24.2 °F 24.8 °F 75% 29.97 in 10.0 mi NW 9.2 mph - N/A   Clear
5:15 PM 32.0 °F 25.6 °F 26.6 °F 80% 29.98 in 10.0 mi NNW 6.9 mph - N/A   Scattered Clouds
5:35 PM 30.2 °F 25.4 °F 26.6 °F 86% 29.98 in 10.0 mi North 4.6 mph - N/A   Scattered Clouds
5:55 PM 32.0 °F 24.8 °F 24.8 °F 75% 29.99 in 10.0 mi North 8.1 mph - N/A   Clear
6:15 PM 28.4 °F 24.6 °F 23.0 °F 80% 30.00 in 10.0 mi West 3.5 mph - N/A   Clear
6:35 PM 26.6 °F 18.2 °F 23.0 °F 86% 30.00 in 10.0 mi WNW 8.1 mph - N/A   Clear
6:55 PM 26.6 °F 20.0 °F 24.8 °F 93% 30.00 in 10.0 mi NW 5.8 mph - N/A   Clear
7:15 PM 26.6 °F 20.0 °F 23.0 °F 86% 30.01 in 10.0 mi NW 5.8 mph - N/A   Scattered Clouds
7:35 PM 26.6 °F 20.0 °F 24.8 °F 93% 30.03 in 10.0 mi WNW 5.8 mph - N/A   Mostly Cloudy
7:55 PM 28.4 °F 23.3 °F 26.6 °F 93% 30.03 in 10.0 mi WNW 4.6 mph - N/A   Mostly Cloudy
8:15 PM 28.4 °F 24.6 °F 26.6 °F 93% 30.03 in 10.0 mi West 3.5 mph - N/A   Overcast
8:35 PM 28.4 °F 20.4 °F 26.6 °F 93% 30.05 in 10.0 mi WNW 8.1 mph - N/A   Overcast
8:55 PM 28.4 °F 20.4 °F 24.8 °F 86% 30.05 in 10.0 mi WNW 8.1 mph - N/A   Mostly Cloudy
9:15 PM 28.4 °F 19.1 °F 23.0 °F 80% 30.05 in 10.0 mi NW 10.4 mph - N/A   Scattered Clouds
9:35 PM 30.2 °F 20.2 °F 21.2 °F 69% 30.06 in 10.0 mi NW 12.7 mph - N/A   Scattered Clouds
9:55 PM 30.2 °F 21.3 °F 21.2 °F 69% 30.07 in 10.0 mi NW 10.4 mph - N/A   Scattered Clouds
10:15 PM 28.4 °F 19.7 °F 21.2 °F 74% 30.07 in 10.0 mi WNW 9.2 mph - N/A   Scattered Clouds
10:35 PM 26.6 °F 19.1 °F 21.2 °F 80% 30.07 in 10.0 mi WNW 6.9 mph - N/A   Scattered Clouds
10:55 PM 24.8 °F 19.1 °F 21.2 °F 86% 30.08 in 10.0 mi WNW 4.6 mph - N/A   Clear
11:15 PM 23.0 °F 13.9 °F 21.2 °F 93% 30.09 in 10.0 mi WNW 8.1 mph - N/A   Scattered Clouds
11:35 PM 24.8 °F 15.3 °F 19.4 °F 80% 30.09 in 10.0 mi NW 9.2 mph - N/A   Scattered Clouds
11:55 PM 24.8 °F 16.9 °F 19.4 °F 80% 30.10 in 10.0 mi WNW 6.9 mph - N/A   Clear